User: anonymous   Login
Location: Unspecified
(0.0000°N, 0.0000°E)
Time: 00:12:27
(UTC+00:00)
Language:

ESSA 1 - Orbit

View from above orbital plane
View from above orbital plane
View from above satellite
View from above satellite

Ground track
Ground track

The orbit data is extracted from the following two-line orbital elements,

1  1982U 66008A   18265.46246457 +.00000018 +00000-0 +15590-4 0  9993
2  1982 097.7964 087.2981 0081880 168.0575 192.2586 14.46870191749347
Epoch (UTC): 22 September 2018 11:05:56
Eccentricity: 0.0081880
inclination: 97.7964°
perigee height: 677 km
apogee height: 794 km
right ascension of ascending node: 87.2981°
argument of perigee: 168.0575°
revolutions per day: 14.46870191
mean anomaly at epoch: 192.2586°
orbit number at epoch: 74934

The dashed part of the orbit path shows where the satellite is in the earth's shadow,  

DLR